Find Starlink 32715

NORAD ID: 62569 Int'l Des: 2025-006 Owner: SPXS Country: US Constellation: starlink operational
LEOCIRCULAR

Live-Position

3D-Globus wird geladen...

Über Starlink 32715

Beschreibung wird geladen...

Nächste Überflüge

Passes for default location (London). Set your location on the main map for personalized predictions.

Höhenverlauf

Loading altitude history...

Zweizeiliger Elementsatz

1 62569U 25006R 26123.31445728 .00024251 00000-0 88793-3 0 9991
2 62569 43.0031 344.3559 0001412 287.3067 72.7630 15.27578104 73213
Epoch: 3. Mai 2026 • Age: 19 hours

Aktueller Status

Höhe 484.5 km
Geschwindigkeit 7.63 km/s
Subsatellitenpunkt 32.79°N, 122.17°E
Startdatum 10. Jan. 2025
Alter 1.3 years
Typ internet

Technische Details

Klassifizierung Payload
Masse 730.00 kg
Trockenmasse 700.00 kg
Gesamtmasse 730.00 kg
Länge 0.30 m
Durchmesser 4.10 m
Spannweite 29.00 m
Form Box + pan
Hersteller SPXS
Bus-Typ Starlink V2M
Phasenstatus In Orbit
Besitzer/Staat SPXS/US

Most Searched